SILO ALERT LOG
| Silo ID | Alert Type | Alert Message | Silo Type | Points | Depth (mm) | Strength | Temperature (°C) | Humidity (%) | Height (mm) | Volume (㎥) | Weight (t) | Flag | Time |
|---|---|---|---|---|---|---|---|---|---|---|---|---|---|
| WJWJR05 | Humidity | 습도센서 측정값이 80% 초과 | 평 | 54 | 7900 | 2442 | 25.6 | 88.5 | -180 | -20.358 | 0 | 0 | 2026-08-21 21:25:44.000 |
| WJWJR01 | Humidity | 습도센서 측정값이 80% 초과 | 평 | 76 | 7680 | 1035 | 26.2 | 94.5 | -40 | -4.524 | 0 | 0 | 2026-08-21 17:25:59.000 |
| WJWJR05 | Humidity | 습도센서 측정값이 80% 초과 | 평 | 59 | 8020 | 2447 | 26.4 | 91.5 | -300 | -33.929 | 0 | 0 | 2026-08-21 17:25:43.000 |
| WJWJR01 | Humidity | 습도센서 측정값이 80% 초과 | 평 | 76 | 7690 | 1085 | 25.8 | 93.6 | -50 | -5.655 | 0 | 0 | 2026-08-21 13:26:01.000 |
| WJWJR05 | Humidity | 습도센서 측정값이 80% 초과 | 평 | 58 | 7880 | 2460 | 26 | 89.3 | -160 | -18.096 | 0 | 0 | 2026-08-21 13:25:44.000 |
| WJWJR01 | Humidity | 습도센서 측정값이 80% 초과 | 평 | 78 | 7660 | 1098 | 24.4 | 91.4 | -20 | -2.262 | 0 | 0 | 2026-08-21 09:25:56.000 |
| WJWJR05 | Humidity | 습도센서 측정값이 80% 초과 | 평 | 57 | 7870 | 2437 | 24.7 | 88.1 | -150 | -16.965 | 0 | 0 | 2026-08-21 09:25:42.000 |
| WJWJR01 | Humidity | 습도센서 측정값이 80% 초과 | 평 | 83 | 7670 | 1090 | 24 | 90.5 | -30 | -3.393 | 0 | 0 | 2026-08-21 05:26:06.000 |
| WJWJR05 | Humidity | 습도센서 측정값이 80% 초과 | 평 | 59 | 8090 | 2411 | 24.6 | 87.4 | -370 | -41.846 | 0 | 0 | 2026-08-21 05:25:44.000 |
| WJWJR01 | Humidity | 습도센서 측정값이 80% 초과 | 평 | 76 | 7650 | 1118 | 25 | 88.3 | -10 | -1.131 | 0 | 0 | 2026-08-21 01:26:06.000 |
| WJWJR05 | Humidity | 습도센서 측정값이 80% 초과 | 평 | 58 | 7870 | 2436 | 25.5 | 85.2 | -150 | -16.965 | 0 | 0 | 2026-08-21 01:25:48.000 |
| WJWJR01 | Humidity | 습도센서 측정값이 80% 초과 | 평 | 76 | 7670 | 1092 | 26.5 | 84 | -30 | -3.393 | 0 | 0 | 2026-08-20 21:26:03.000 |
| WJWJR05 | Humidity | 습도센서 측정값이 80% 초과 | 평 | 59 | 7920 | 2456 | 27.1 | 80.8 | -200 | -22.619 | 0 | 0 | 2026-08-20 21:25:44.000 |
| WJWJR01 | Humidity | 습도센서 측정값이 80% 초과 | 평 | 76 | 7670 | 1101 | 27.9 | 85.8 | -30 | -3.393 | 0 | 0 | 2026-08-20 13:25:57.000 |
| WJWJR05 | Humidity | 습도센서 측정값이 80% 초과 | 평 | 57 | 7900 | 2499 | 27.9 | 83.4 | -180 | -20.358 | 0 | 0 | 2026-08-20 13:25:43.000 |
| WJWJR01 | Humidity | 습도센서 측정값이 80% 초과 | 평 | 76 | 7680 | 1082 | 24.9 | 91.1 | -40 | -4.524 | 0 | 0 | 2026-08-20 09:25:56.000 |
| WJWJR05 | Humidity | 습도센서 측정값이 80% 초과 | 평 | 58 | 7970 | 2469 | 25.1 | 87.2 | -250 | -28.274 | 0 | 0 | 2026-08-20 09:25:43.000 |
| WJWJR01 | Humidity | 습도센서 측정값이 80% 초과 | 평 | 77 | 7680 | 1078 | 23.9 | 88.6 | -40 | -4.524 | 0 | 0 | 2026-08-20 05:25:59.000 |
| WJWJR05 | Humidity | 습도센서 측정값이 80% 초과 | 평 | 45 | 7890 | 2427 | 24.5 | 84.8 | -169 | -19.227 | 0 | 0 | 2026-08-20 05:25:45.000 |
| WJWJR01 | Humidity | 습도센서 측정값이 80% 초과 | 평 | 76 | 7660 | 1076 | 24.8 | 85.6 | -20 | -2.262 | 0 | 0 | 2026-08-20 01:25:57.000 |
[첫 페이지] [4] [5] [6] [7] 8 [9] [10] [11] [12] [마지막 페이지]